EEL RIVER CAMP CA US current weather conditions

sailwx.info

Air temperature 12.8° C
Dewpoint 12.6° C

Last reported at 2014-Oct-24 10:28 UTC.
Time now 2014-Oct-24 12:01 UTC

Location: N 40°08' W 123°49'.
View on Google Maps.

See reports from other nearby stations

  
Tides and Currents Weather Stations Pressure Air Temp Water Temp Dewpoint Dewpoint Depression Visibility Wind Speed Wind Dir Waves Ship Positions
date/time (UTC)wind fromknots sea level pressurealtimeterstation pressurevisibilityair tempwater tempwave heightnotes
2014-Oct-24 10:28 12.8
2014-Oct-24 09:28 12.8
2014-Oct-24 08:28 12.8
2014-Oct-24 07:28 192 0 gusting 3 13.3
2014-Oct-24 06:28 13.3
2014-Oct-24 05:28 050 1 gusting 2 13.3
2014-Oct-24 04:28 021 0 gusting 2 13.3
2014-Oct-24 03:28 017 1 gusting 6 13.9
2014-Oct-24 02:28 030 1 gusting 5 14.4
2014-Oct-24 01:28 081 1 gusting 5 15.6
2014-Oct-24 00:28 039 1 gusting 6 16.1
2014-Oct-23 23:28 026 0 gusting 10 16.7
2014-Oct-23 22:28 16.7
2014-Oct-23 21:28 230 1 gusting 4 17.2
2014-Oct-23 20:28 107 1 gusting 4 16.7
2014-Oct-23 19:28 333 1 gusting 4 16.7
2014-Oct-23 18:28 327 6 gusting 10 16.7
2014-Oct-23 17:28 048 1 gusting 7 16.1
2014-Oct-23 16:28 147 3 gusting 8 16.1
2014-Oct-23 15:28 101 2 gusting 6 15.6
2014-Oct-23 14:28 291 2 gusting 7 16.1
2014-Oct-23 13:28 100 2 gusting 8 15.6
2014-Oct-23 12:28 012 0 gusting 4 15.0
2014-Oct-23 11:28 332 0 gusting 13 15.0
2014-Oct-23 10:28 116 4 gusting 11 15.6
2014-Oct-23 09:28 214 1 gusting 7 15.0
2014-Oct-23 08:28 315 0 gusting 7 15.0
2014-Oct-23 07:28 320 0 gusting 4 14.4
2014-Oct-23 06:28 020 1 gusting 3 14.4
2014-Oct-23 05:28 13.9
2014-Oct-23 04:28 14.4
2014-Oct-23 03:28 284 0 gusting 3 14.4
2014-Oct-23 02:28 14.4
2014-Oct-23 01:28 302 0 gusting 9 16.1
2014-Oct-23 00:28 192 5 gusting 11 17.2
2014-Oct-22 23:28 206 5 gusting 10 17.8
2014-Oct-22 22:28 002 1 gusting 3 17.2
2014-Oct-22 21:28 020 1 gusting 4 15.6
2014-Oct-22 20:28 087 1 gusting 3 14.4
2014-Oct-22 19:28 170 0 gusting 3 13.9
2014-Oct-22 18:28 172 0 gusting 2 12.8
2014-Oct-22 17:28 235 0 gusting 2 12.2
2014-Oct-22 16:28 226 0 gusting 2 11.1
2014-Oct-22 15:28 10.6
2014-Oct-22 14:28 148 0 gusting 2 10.6
2014-Oct-22 13:28 10.0
2014-Oct-22 12:28 10.0